Wind_Speed
27 27 27 27 27 28 30 32 33 34 35 36 35 34 33 33 33 35 38 42 44 44 44 44 42 40 39 38 38 39 40 41 42 42 43 42 41 41 42 44 45 44 46 51 55 56 56 55 54 52 51 49 47 46 44 41 39 38 37 37 37 38 39
26 27 27 28 27 27 28 30 32 33 35 36 35 32 31 31 32 33 34 36 39 41 42 42 43 43 42 40 39 38 37 38 39 40 41 42 41 41 41 43 45 45 46 49 52 54 55 54 54 54 53 51 48 46 44 42 39 38 38 38 38 39 39
28 29 29 29 29 28 28 28 29 31 34 36 35 33 31 30 30 32 33 33 34 36 37 39 41 42 42 42 41 41 39 38 37 37 38 39 40 40 40 41 43 45 46 48 50 52 53 53 54 54 53 51 48 46 45 43 40 39 39 39 40 40 40
32 33 34 32 30 30 30 29 28 29 31 33 34 34 32 30 29 31 32 33 33 33 34 35 37 38 39 39 40 42 41 40 40 39 38 38 38 39 40 40 41 43 45 47 49 51 52 53 54 54 53 51 49 47 47 45 43 42 42 42 42 41 41
35 36 37 36 34 34 33 30 29 30 30 30 31 33 33 30 30 31 32 33 33 34 34 34 34 34 35 36 37 39 40 40 40 40 40 40 39 38 38 38 39 41 43 45 47 49 52 53 54 54 54 53 50 49 49 48 46 44 44 44 44 44 43
39 39 39 39 39 38 35 31 29 28 29 29 29 30 32 32 31 31 32 32 33 34 34 34 34 34 35 35 35 36 37 37 37 38 39 40 40 39 38 38 37 37 39 42 44 47 49 51 54 54 55 54 52 50 49 49 47 46 46 46 47 46 45
41 42 41 40 39 38 35 32 28 26 26 28 28 28 30 32 32 32 31 32 32 32 33 34 35 35 35 36 35 35 35 36 36 36 37 38 38 38 38 39 38 38 37 39 42 45 47 49 52 54 55 54 52 50 49 49 49 48 48 48 48 47 45
42 42 42 40 38 37 36 34 31 28 27 28 28 27 28 30 32 33 32 32 31 32 33 33 33 34 35 35 35 35 36 36 36 36 37 37 37 38 38 39 40 40 39 39 40 43 45 47 50 52 54 54 54 53 53 53 51 49 47 47 47 47 46
41 41 41 42 42 41 39 37 35 32 29 27 26 25 26 28 30 31 31 31 30 30 30 31 31 32 32 33 34 34 35 35 36 36 36 36 37 38 38 39 40 41 41 41 41 42 43 46 49 51 53 55 56 55 54 52 49 47 46 46 47 47 47
34 36 37 39 40 41 39 36 34 31 28 25 24 24 25 27 28 29 29 29 28 28 28 28 29 30 30 31 32 32 33 34 35 35 36 36 37 38 39 39 40 40 41 42 43 43 43 44 47 50 52 54 54 53 52 50 48 46 46 46 47 47 48
24 26 28 29 30 29 29 29 27 25 23 21 21 21 21 23 25 26 27 28 28 28 27 26 27 28 29 30 31 32 33 34 35 35 36 36 37 38 39 39 40 40 40 41 42 43 43 43 44 46 49 51 51 51 50 49 48 48 47 46 46 48 48
19 19 18 18 17 17 19 20 21 21 20 19 19 18 19 22 23 24 25 26 26 26 26 25 25 26 28 30 31 32 33 34 35 36 36 37 37 38 39 40 40 40 40 40 41 42 43 43 42 42 45 48 50 50 48 47 47 48 47 46 46 48 47
7 6 6 7 9 11 14 16 18 19 19 18 17 18 19 23 24 24 24 24 24 25 25 25 26 27 29 30 31 32 34 35 35 36 36 37 38 38 39 40 40 41 41 41 41 41 41 41 41 41 41 44 47 48 45 43 45 46 45 45 46 47 47
5 5 4 5 6 8 11 13 15 17 18 19 19 20 21 24 26 25 24 24 24 25 26 26 27 29 30 31 32 33 34 35 36 36 37 37 38 38 39 40 40 41 42 42 42 42 41 40 40 41 40 40 43 44 42 40 41 42 43 44 45 46 46
3 3 5 7 8 10 12 14 15 17 19 21 21 22 23 25 27 26 26 25 26 26 27 27 28 30 31 32 33 33 34 35 36 36 37 37 38 38 39 40 41 41 41 42 42 42 41 39 39 40 40 40 41 42 40 38 38 40 41 43 44 46 46
6 8 10 10 11 13 14 15 16 18 19 20 21 23 24 26 27 27 27 28 28 28 28 28 29 30 31 32 32 33 34 34 34 35 35 36 37 38 38 39 40 40 41 42 42 41 41 40 39 39 40 40 41 42 42 40 40 41 44 45 46 46 46
8 9 10 10 11 13 13 13 14 15 16 18 19 21 23 25 26 28 28 28 29 29 29 29 30 30 30 31 31 31 32 32 33 34 34 35 37 38 39 38 38 39 40 41 42 42 41 41 40 40 40 41 41 43 44 44 43 42 43 44 44 44 44
7 8 9 9 9 9 10 10 10 11 13 15 16 19 22 24 25 27 27 28 29 29 29 30 30 31 31 32 32 32 32 32 33 34 35 35 36 38 39 39 38 38 39 40 42 42 41 41 41 41 41 41 42 42 43 43 42 41 40 41 41 41 41
4 4 6 6 6 8 9 9 9 10 11 12 14 16 20 25 27 28 29 29 29 30 31 31 32 32 33 34 34 34 35 35 37 38 38 37 37 39 40 39 39 38 39 40 41 42 42 41 41 41 41 41 42 42 42 41 40 39 39 39 39 39 39
1 1 3 5 8 10 10 11 11 11 11 13 15 17 20 24 27 29 29 28 28 30 31 31 32 33 34 35 36 37 37 38 39 40 39 38 39 39 39 38 38 37 38 39 40 40 40 41 41 41 40 40 41 41 41 40 39 38 37 37 38 38 39
2 5 6 8 11 13 13 15 15 15 15 17 18 19 20 22 25 26 27 28 28 29 30 30 30 31 31 33 35 36 37 38 38 38 38 38 39 38 38 39 38 36 37 39 40 39 39 40 40 39 39 39 39 39 39 38 37 36 36 37 38 38 38
7 9 10 11 13 15 16 17 18 18 18 18 19 20 20 20 22 23 25 27 28 29 29 29 30 30 30 31 33 34 35 35 35 36 37 36 35 35 36 36 35 34 35 38 39 39 38 38 38 38 38 37 36 37 37 36 35 36 37 38 38 37 36
14 14 14 14 16 17 18 18 19 19 19 18 19 20 18 18 20 22 24 26 27 28 29 30 31 31 32 33 33 33 33 31 31 32 32 29 28 29 31 32 33 33 34 36 37 36 36 36 37 37 35 34 34 35 35 35 35 37 37 37 35 35 35
16 17 17 16 16 17 18 18 18 17 17 17 19 18 16 17 19 20 21 22 23 24 25 26 27 28 28 29 29 28 26 25 25 26 24 23 26 27 27 29 32 33 34 34 34 33 34 35 36 34 32 31 31 32 34 35 36 36 35 34 33 33 33
18 19 19 18 16 16 17 17 16 16 16 17 17 16 15 15 16 16 16 17 17 18 18 19 20 21 21 22 21 21 20 20 21 20 20 23 26 26 26 28 30 32 33 33 33 33 33 33 33 31 30 30 31 33 35 36 35 33 32 31 31 31 30
21 20 19 17 16 16 16 15 15 15 16 16 16 15 14 12 11 10 10 11 11 12 13 14 14 15 15 16 17 17 17 18 18 18 20 23 24 24 24 27 29 30 31 32 32 32 31 30 29 29 30 31 32 34 35 33 31 30 30 29 28 28 27
20 16 15 15 14 15 15 15 15 14 15 15 14 12 10 8 7 6 6 6 6 7 7 7 9 10 11 13 14 15 16 17 18 19 21 21 19 20 22 24 26 28 29 30 29 28 27 27 27 28 29 30 32 32 31 30 29 28 27 26 25 25 24
17 13 15 16 14 13 14 15 13 13 14 13 11 9 8 6 5 5 5 4 4 5 5 5 6 7 8 10 12 14 15 16 17 17 17 16 16 18 20 22 24 25 25 25 25 25 25 26 26 27 28 29 30 29 28 27 26 25 24 23 23 23 23
19 16 17 18 13 10 11 12 12 12 12 11 8 7 6 4 3 3 3 2 3 4 4 3 3 4 5 7 10 11 11 12 14 14 13 13 14 16 18 20 21 22 22 23 23 24 25 25 26 27 28 28 27 26 25 24 23 22 21 21 21 22 22
20 18 19 19 15 9 5 8 10 11 11 8 6 5 4 3 1 1 2 3 3 2 2 2 2 1 2 4 7 7 8 9 11 12 12 12 13 13 15 17 19 20 21 22 23 24 25 25 25 26 25 25 24 23 21 20 20 19 19 19 20 20 20
19 17 18 19 16 10 2 5 9 10 10 6 4 4 4 4 2 1 2 2 2 1 2 2 1 1 2 2 4 5 7 9 11 12 13 14 15 15 16 18 19 20 22 23 23 24 24 24 24 24 23 22 21 19 18 18 17 17 17 17 17 17 17
19 16 16 16 16 11 4 4 7 8 7 4 2 3 6 6 4 3 3 2 2 1 1 2 4 4 4 5 6 8 10 11 12 13 14 15 16 17 18 20 21 21 22 22 21 21 22 22 23 23 21 19 18 17 16 16 15 15 15 15 15 15 16
19 15 14 13 14 12 7 4 5 5 5 3 2 4 6 5 4 3 3 4 3 1 0 2 4 5 6 7 9 11 13 13 13 13 14 15 16 16 18 19 20 20 20 20 20 21 21 21 21 19 17 16 15 14 14 13 13 13 13 13 13 14 14
18 14 12 11 11 11 9 7 5 5 5 5 5 6 6 4 3 3 4 5 5 2 2 3 4 5 7 9 11 12 13 13 13 14 15 16 17 17 18 18 19 19 20 20 20 20 19 18 16 15 14 13 12 11 11 11 11 11 11 12 12 13 14
19 16 13 11 9 8 8 8 8 7 6 6 6 7 6 5 5 4 3 5 5 3 3 6 6 7 8 10 12 13 14 14 15 16 16 17 17 17 17 17 17 18 18 18 18 17 16 14 13 12 11 11 10 10 10 10 10 10 11 11 12 13 14
18 17 14 12 10 7 6 7 7 6 6 6 7 8 8 7 7 5 3 4 5 5 5 6 7 8 9 11 13 14 14 15 16 16 16 16 16 16 16 16 16 16 16 16 15 14 13 12 11 10 10 10 10 10 10 10 10 10 11 11 12 13 15
Wind_Direction
253 254 256 257 260 260 253 248 245 243 243 243 242 242 242 242 243 242 239 238 237 235 233 230 229 228 227 228 230 233 236 238 240 242 242 241 238 236 236 238 241 240 236 233 234 237 239 240 241 240 239 238 238 238 238 240 242 243 243 243 244 245 246
251 254 255 254 255 257 254 249 245 243 243 242 242 243 242 241 242 242 239 237 238 237 236 234 232 230 228 227 227 228 230 233 235 238 241 242 242 240 238 237 239 241 240 238 237 238 239 241 242 242 241 241 241 240 241 242 244 244 243 243 243 244 245
247 248 249 248 250 251 249 248 245 243 242 240 239 241 241 241 242 242 240 237 236 237 237 236 234 232 230 229 229 228 227 228 229 232 235 239 242 243 241 240 239 240 240 239 239 239 240 241 242 243 244 244 244 243 243 244 245 245 244 243 243 243 244
242 242 242 242 244 247 247 247 247 246 243 240 238 238 238 239 241 242 241 238 236 234 235 236 236 235 233 232 232 231 230 229 228 229 230 232 235 239 241 241 240 240 239 239 238 238 239 240 242 243 244 244 244 244 245 245 245 246 245 243 243 244 244
239 240 239 238 239 242 244 248 253 251 247 242 240 237 237 238 238 238 238 238 236 234 233 233 234 235 234 233 233 233 233 234 233 232 231 231 232 233 236 239 239 240 239 239 239 239 239 240 240 241 242 242 242 242 244 245 246 247 246 244 244 244 244
240 240 240 238 239 241 245 250 253 252 249 246 242 237 237 238 238 236 235 234 235 235 234 233 233 233 233 232 233 233 234 235 235 236 236 235 234 233 234 235 237 239 240 240 241 240 240 240 240 241 241 241 240 240 242 244 246 248 248 246 244 244 244
242 243 244 244 243 242 245 248 249 252 253 249 244 241 239 239 239 239 237 235 233 234 235 235 234 235 236 236 235 234 234 233 234 235 236 237 238 238 237 236 236 237 238 240 241 241 241 241 240 240 240 240 239 239 240 243 245 247 247 246 245 244 244
245 247 248 250 250 247 246 245 247 253 256 250 245 243 243 241 241 241 241 240 236 234 234 235 236 236 237 238 239 238 237 236 235 234 234 235 236 237 238 238 238 238 237 238 239 240 241 241 240 239 239 238 238 238 240 242 243 246 247 247 246 245 245
251 252 253 253 254 254 251 247 248 252 252 246 243 244 244 244 243 243 243 244 242 238 235 235 236 237 238 239 240 241 241 241 240 239 238 237 236 236 236 237 238 238 238 237 237 238 239 239 239 238 238 238 238 239 241 243 244 246 246 246 246 245 245
254 255 255 255 255 255 253 248 246 246 244 242 244 245 244 243 243 244 243 244 243 241 237 234 234 236 238 240 241 241 242 242 242 242 241 240 240 239 238 237 237 238 238 239 239 239 238 238 238 238 237 238 239 240 242 243 245 245 244 244 244 244 244
256 256 256 256 255 251 244 238 233 232 235 241 246 247 247 244 242 241 242 241 241 240 239 236 233 233 235 238 239 240 241 241 242 242 241 241 241 241 241 240 239 239 239 239 240 240 240 239 237 237 237 237 238 239 241 243 245 245 243 242 243 244 244
264 261 256 254 247 232 222 218 217 223 233 240 242 245 251 251 245 241 241 240 240 241 241 241 239 237 236 237 238 239 240 241 241 241 241 241 241 241 241 241 241 241 240 239 239 239 240 239 238 238 237 236 237 238 240 243 247 247 245 243 243 244 244
256 243 223 218 215 209 212 219 223 228 235 240 242 245 252 254 251 247 245 245 246 246 246 245 244 243 240 239 239 238 240 241 242 243 243 242 242 241 241 240 240 240 240 239 238 238 238 238 238 239 238 237 237 238 238 240 245 248 246 243 243 244 244
119 128 152 174 200 217 226 232 236 238 240 243 243 243 246 250 251 251 250 251 251 250 249 246 244 244 243 242 241 240 240 241 242 244 244 244 244 244 243 242 240 239 239 239 238 238 238 237 238 238 238 237 237 236 236 238 243 246 245 244 244 244 244
126 188 211 207 215 228 235 238 240 240 241 243 243 243 245 248 251 253 254 253 252 250 248 246 245 244 243 242 241 240 241 242 243 245 246 246 247 246 245 245 243 241 240 240 240 240 238 237 237 238 238 237 236 234 233 235 239 240 241 242 242 242 242
220 222 219 214 218 230 238 242 244 245 246 248 249 249 251 252 254 256 256 255 253 251 250 248 246 245 244 243 242 240 240 242 243 244 246 247 248 248 248 247 245 244 243 242 241 240 238 236 236 238 239 237 236 234 233 233 234 235 237 239 240 240 241
230 231 235 239 242 247 250 249 249 252 252 252 252 253 254 255 255 256 256 255 255 254 252 251 250 249 248 247 245 243 242 243 243 244 245 245 247 249 249 248 247 245 245 243 242 240 238 234 234 237 239 238 237 236 235 234 235 236 237 239 241 242 243
265 259 257 253 247 249 247 234 234 247 254 256 258 259 259 258 257 257 257 256 255 254 253 251 250 250 250 249 248 248 248 247 248 248 249 249 250 250 249 249 248 246 244 243 242 241 239 235 232 235 239 239 238 237 237 237 237 237 238 240 241 242 242
276 248 241 242 242 246 239 225 227 244 259 270 273 269 264 259 257 257 257 257 256 254 253 251 250 251 251 251 251 251 251 252 252 253 254 255 254 252 250 248 247 246 244 242 241 241 239 236 233 233 237 240 240 238 236 236 236 236 237 237 238 238 238
343 274 250 260 270 267 258 253 252 256 268 281 285 284 276 266 261 261 261 262 261 259 257 256 254 253 253 254 255 254 255 255 256 257 257 256 256 255 254 252 250 247 243 241 240 239 238 236 233 232 235 240 240 237 235 234 233 233 233 233 234 234 236
322 296 280 281 284 280 274 271 268 270 277 282 287 291 285 272 265 263 262 262 261 261 261 259 258 258 257 257 256 256 256 256 256 257 257 256 256 256 256 254 252 247 241 237 235 234 234 234 232 231 235 240 240 237 234 232 231 231 230 231 232 233 235
308 294 287 288 289 285 279 274 271 273 278 282 291 296 286 270 263 261 259 258 256 256 258 258 258 258 255 253 252 252 252 252 252 253 255 254 253 252 249 247 244 240 235 230 229 231 232 230 229 231 236 238 237 235 232 230 229 229 229 230 232 233 234
320 307 297 291 288 286 283 276 271 272 274 280 292 296 287 273 268 266 264 261 258 255 255 254 254 252 250 249 250 249 249 250 248 247 248 247 245 243 241 235 231 229 226 224 226 230 229 227 230 233 235 234 232 231 230 229 229 229 230 231 231 232 233
322 311 301 291 283 281 279 273 270 270 271 280 291 293 286 278 276 273 269 264 259 256 254 251 249 249 248 248 248 246 246 243 239 238 239 237 236 237 235 230 224 221 219 219 223 225 225 228 231 231 229 228 228 229 229 230 229 229 229 229 230 231 232
324 314 306 299 289 280 274 271 270 269 270 279 288 286 283 284 283 279 273 267 263 260 256 251 248 246 244 242 239 237 234 231 231 232 231 230 230 230 228 225 221 219 217 217 220 221 224 227 228 224 222 222 224 226 228 228 227 226 225 226 227 230 231
325 315 309 305 296 284 275 270 267 266 269 276 280 281 286 293 289 280 276 274 271 268 264 261 256 249 242 237 235 233 230 228 225 223 222 225 227 226 222 219 218 217 217 217 219 220 220 220 219 218 219 220 223 225 225 224 223 223 224 225 227 229 231
329 322 319 314 300 283 274 266 261 261 265 268 271 279 289 291 283 285 296 296 289 287 286 281 272 259 245 237 235 232 225 219 215 215 220 225 226 222 217 213 213 214 215 215 216 214 212 212 213 215 217 220 221 222 221 220 220 222 224 225 226 228 231
346 344 335 325 308 281 265 257 252 253 256 256 263 276 283 281 289 314 324 314 302 306 311 308 293 276 254 237 231 226 219 214 211 212 218 222 221 217 213 210 210 210 210 211 210 208 207 208 209 212 214 217 217 217 216 217 219 221 222 223 225 228 231
359 358 348 341 329 294 259 244 238 240 244 246 257 272 272 269 297 327 346 356 337 326 328 331 314 290 264 240 228 220 214 208 203 202 206 211 214 214 211 209 209 207 207 206 204 202 203 203 205 209 211 212 213 213 213 214 215 217 220 223 226 229 232
1 2 360 357 351 334 270 228 220 224 230 235 249 258 237 202 238 337 32 31 359 346 6 16 2 317 254 239 229 219 208 199 193 190 193 198 203 206 206 206 204 200 198 196 195 196 198 200 203 205 207 208 209 208 208 210 211 215 220 223 228 232 235
3 4 5 3 359 357 333 200 200 209 216 219 234 231 189 167 172 121 77 31 345 3 66 70 86 124 159 196 202 193 185 182 181 182 186 189 190 189 187 188 189 188 188 189 190 192 194 195 199 201 202 203 203 201 203 207 210 215 220 225 230 236 241
6 7 8 7 8 11 22 169 182 198 204 200 208 197 171 164 171 160 126 75 9 345 71 106 120 135 146 157 162 162 163 167 172 178 183 183 182 180 178 177 179 182 183 185 187 189 192 194 196 197 196 195 195 197 202 207 211 217 223 229 235 241 247
9 11 11 14 20 27 44 113 159 179 174 148 138 159 160 168 190 173 122 75 50 22 24 113 128 140 148 155 157 158 159 162 166 171 174 174 174 175 176 176 177 179 180 182 185 188 191 192 191 189 188 189 192 197 203 208 214 222 227 234 242 248 255
12 17 22 26 33 42 58 80 105 126 118 106 118 139 146 168 200 170 106 57 39 47 119 137 143 145 146 151 155 156 159 161 162 165 169 169 169 170 172 174 176 178 180 182 184 184 183 182 181 181 183 187 193 200 207 213 220 226 232 240 248 255 263
8 15 28 37 42 50 67 78 89 108 111 109 126 139 146 170 189 169 104 51 29 46 118 142 155 157 152 151 151 152 154 157 159 162 165 165 166 168 170 172 176 178 179 179 178 175 174 174 177 180 183 189 197 205 211 218 225 232 240 247 254 261 268
5 10 20 33 41 53 79 89 95 119 135 138 146 150 153 164 173 165 124 67 41 46 78 112 141 159 161 159 156 155 153 154 157 160 160 161 163 166 168 171 173 174 173 172 170 170 172 174 176 181 187 195 203 208 214 222 230 238 247 254 261 268 273
Height
2844 2845 2846 2847 2848 2849 2850 2851 2852 2853 2854 2855 2856 2856 2857 2859 2860 2861 2863 2865 2867 2869 2871 2873 2876 2879 2882 2885 2887 2890 2892 2894 2897 2899 2901 2904 2907 2910 2912 2915 2917 2919 2921 2925 2929 2933 2937 2941 2944 2947 2951 2953 2955 2956 2958 2962 2965 2967 2969 2971 2972 2974 2975
2839 2840 2841 2842 2843 2844 2845 2845 2847 2848 2849 2850 2851 2852 2853 2854 2856 2857 2858 2860 2862 2864 2866 2868 2870 2873 2876 2879 2881 2883 2886 2888 2891 2893 2895 2897 2900 2903 2907 2909 2912 2915 2916 2918 2922 2926 2929 2933 2937 2940 2944 2947 2949 2951 2953 2956 2959 2961 2963 2965 2966 2968 2969
2834 2835 2835 2836 2838 2839 2840 2841 2842 2843 2844 2845 2846 2848 2849 2850 2851 2852 2854 2855 2857 2859 2861 2862 2864 2867 2870 2872 2874 2877 2880 2882 2885 2887 2890 2892 2894 2897 2900 2903 2906 2909 2911 2913 2916 2919 2922 2926 2929 2933 2936 2940 2943 2945 2947 2950 2952 2954 2956 2957 2959 2961 2963
2827 2828 2829 2831 2833 2834 2835 2836 2837 2838 2839 2840 2842 2843 2844 2845 2846 2848 2850 2851 2853 2854 2856 2857 2859 2862 2865 2866 2868 2871 2874 2876 2879 2882 2884 2887 2889 2891 2894 2897 2900 2902 2904 2907 2910 2912 2916 2919 2922 2926 2929 2932 2935 2938 2941 2943 2945 2947 2949 2951 2953 2955 2957
2821 2822 2823 2825 2827 2828 2830 2831 2833 2834 2834 2836 2837 2838 2840 2841 2842 2843 2844 2846 2848 2849 2851 2853 2855 2857 2860 2861 2863 2866 2868 2871 2873 2876 2878 2881 2883 2886 2889 2891 2893 2896 2898 2901 2904 2906 2909 2912 2915 2918 2921 2924 2927 2930 2933 2936 2939 2941 2943 2945 2947 2948 2951
2815 2816 2817 2819 2821 2823 2825 2827 2828 2829 2830 2831 2832 2833 2835 2836 2837 2838 2839 2841 2843 2845 2846 2848 2850 2853 2854 2856 2858 2861 2863 2866 2868 2870 2873 2875 2878 2881 2883 2885 2888 2890 2892 2895 2898 2900 2903 2906 2909 2911 2914 2917 2921 2923 2926 2930 2933 2935 2937 2938 2940 2942 2945
2809 2810 2811 2813 2815 2818 2820 2822 2823 2824 2825 2827 2828 2829 2830 2832 2833 2834 2835 2837 2838 2840 2842 2844 2846 2848 2849 2851 2854 2856 2859 2861 2863 2865 2867 2870 2872 2875 2877 2879 2882 2884 2886 2889 2892 2894 2897 2900 2902 2905 2907 2911 2914 2917 2920 2923 2925 2928 2930 2932 2934 2937 2940
2803 2805 2806 2808 2810 2812 2815 2817 2818 2820 2821 2822 2823 2824 2825 2827 2828 2830 2831 2833 2834 2836 2837 2839 2841 2843 2845 2847 2849 2851 2853 2855 2857 2860 2862 2865 2867 2869 2871 2873 2876 2877 2880 2883 2886 2889 2892 2894 2896 2898 2901 2903 2906 2909 2912 2915 2918 2921 2925 2927 2930 2932 2935
2799 2800 2802 2804 2805 2807 2809 2811 2813 2815 2817 2818 2819 2820 2821 2823 2824 2826 2827 2829 2830 2832 2833 2835 2836 2838 2840 2842 2844 2846 2848 2850 2852 2854 2856 2859 2861 2863 2865 2868 2870 2871 2874 2877 2880 2883 2886 2888 2890 2892 2894 2896 2899 2903 2907 2910 2913 2916 2919 2922 2924 2926 2928
2794 2795 2797 2798 2799 2800 2802 2805 2808 2811 2813 2814 2815 2817 2818 2819 2821 2822 2823 2825 2826 2828 2829 2831 2833 2834 2836 2838 2840 2842 2843 2845 2847 2849 2851 2854 2856 2857 2860 2862 2864 2866 2868 2871 2874 2877 2880 2882 2885 2888 2890 2892 2896 2899 2901 2903 2907 2910 2912 2915 2917 2919 2922
2790 2791 2792 2793 2794 2795 2796 2800 2804 2807 2809 2810 2812 2813 2814 2816 2817 2818 2820 2821 2822 2823 2825 2827 2828 2830 2832 2834 2835 2837 2839 2840 2842 2844 2846 2848 2850 2852 2854 2856 2858 2861 2863 2865 2868 2871 2873 2876 2880 2883 2886 2888 2890 2893 2895 2897 2900 2902 2905 2908 2910 2913 2915
2786 2787 2788 2789 2790 2792 2794 2797 2801 2803 2805 2807 2809 2810 2811 2812 2813 2814 2815 2817 2818 2819 2821 2823 2824 2826 2827 2829 2831 2832 2834 2835 2837 2839 2841 2843 2845 2847 2850 2851 2854 2856 2858 2860 2863 2865 2867 2871 2874 2877 2879 2882 2885 2887 2890 2892 2894 2896 2899 2902 2904 2906 2909
2784 2785 2786 2788 2790 2792 2794 2797 2799 2801 2803 2804 2806 2807 2808 2809 2809 2810 2811 2813 2814 2815 2817 2818 2820 2821 2822 2824 2826 2828 2829 2831 2833 2835 2837 2838 2840 2843 2845 2847 2849 2852 2854 2856 2858 2859 2862 2865 2868 2870 2873 2877 2879 2882 2884 2887 2889 2891 2894 2896 2898 2900 2903
2784 2785 2787 2788 2791 2793 2794 2796 2798 2799 2800 2802 2803 2804 2805 2805 2806 2807 2808 2809 2810 2811 2812 2814 2815 2816 2818 2820 2821 2823 2825 2826 2828 2830 2832 2833 2835 2837 2840 2842 2844 2847 2849 2850 2852 2854 2857 2860 2862 2864 2868 2871 2873 2876 2879 2881 2884 2886 2889 2891 2893 2894 2896
2786 2786 2787 2788 2790 2792 2793 2794 2795 2796 2797 2799 2800 2801 2801 2802 2802 2803 2804 2805 2806 2807 2808 2809 2811 2812 2813 2815 2817 2819 2820 2822 2824 2825 2827 2829 2830 2832 2834 2836 2839 2841 2843 2845 2847 2849 2852 2855 2857 2859 2862 2865 2867 2870 2872 2875 2877 2880 2882 2884 2886 2887 2889
2786 2787 2787 2788 2789 2790 2791 2792 2793 2793 2794 2795 2796 2797 2797 2798 2798 2799 2799 2801 2802 2803 2804 2805 2806 2807 2808 2810 2812 2814 2816 2818 2820 2821 2822 2824 2825 2827 2829 2831 2833 2836 2838 2840 2842 2844 2847 2849 2852 2854 2857 2859 2861 2863 2866 2868 2870 2872 2875 2877 2879 2881 2883
2786 2786 2787 2788 2788 2788 2789 2790 2790 2791 2792 2792 2793 2793 2793 2793 2794 2794 2795 2795 2796 2798 2799 2800 2801 2802 2804 2805 2807 2809 2811 2813 2814 2815 2817 2818 2820 2821 2823 2825 2828 2830 2832 2834 2836 2839 2841 2844 2847 2849 2851 2853 2855 2858 2860 2862 2864 2867 2870 2872 2874 2876 2877
2785 2785 2786 2786 2786 2787 2787 2788 2788 2788 2789 2789 2790 2790 2790 2790 2790 2790 2790 2791 2792 2793 2794 2795 2796 2798 2799 2800 2802 2804 2806 2807 2808 2809 2810 2812 2814 2815 2817 2819 2822 2825 2827 2829 2831 2834 2836 2839 2841 2844 2846 2849 2850 2852 2855 2857 2860 2863 2865 2867 2869 2871 2872
2783 2784 2784 2785 2785 2785 2785 2785 2785 2786 2786 2787 2787 2787 2787 2787 2786 2786 2786 2787 2788 2789 2790 2791 2792 2793 2794 2795 2797 2799 2800 2801 2802 2803 2805 2807 2808 2809 2811 2814 2817 2819 2821 2823 2826 2829 2831 2834 2836 2839 2842 2844 2846 2848 2850 2852 2855 2857 2859 2861 2863 2865 2866
2783 2783 2784 2784 2784 2783 2783 2782 2782 2783 2783 2784 2784 2784 2783 2782 2781 2781 2782 2783 2783 2784 2785 2786 2787 2789 2790 2791 2792 2794 2795 2796 2797 2798 2799 2801 2802 2803 2806 2808 2811 2813 2816 2818 2820 2823 2826 2829 2831 2834 2837 2839 2842 2843 2845 2848 2850 2852 2854 2856 2857 2859 2861
2782 2782 2782 2782 2781 2781 2781 2780 2780 2780 2780 2781 2781 2780 2779 2777 2777 2777 2777 2778 2778 2779 2780 2781 2782 2784 2785 2786 2787 2788 2789 2790 2791 2792 2793 2795 2797 2799 2801 2803 2805 2807 2809 2811 2814 2817 2821 2823 2826 2829 2832 2835 2837 2840 2842 2843 2845 2847 2849 2850 2852 2854 2856
2780 2780 2780 2779 2779 2778 2778 2777 2777 2777 2777 2777 2777 2775 2774 2773 2773 2773 2773 2773 2774 2774 2775 2776 2777 2779 2780 2781 2781 2782 2783 2784 2786 2786 2787 2789 2792 2793 2794 2796 2798 2800 2803 2805 2809 2812 2816 2819 2822 2825 2828 2831 2833 2835 2837 2839 2840 2842 2843 2845 2847 2849 2851
2779 2778 2777 2777 2776 2775 2774 2773 2773 2774 2774 2774 2773 2772 2770 2770 2770 2770 2769 2769 2770 2770 2771 2771 2772 2773 2774 2775 2776 2777 2778 2779 2781 2781 2782 2785 2786 2787 2789 2791 2793 2795 2798 2802 2805 2809 2812 2815 2819 2821 2824 2827 2829 2831 2832 2834 2835 2837 2839 2841 2843 2845 2847
2776 2775 2774 2773 2772 2771 2770 2770 2770 2771 2771 2771 2770 2769 2768 2767 2767 2766 2766 2765 2765 2765 2766 2766 2767 2768 2769 2770 2771 2772 2773 2775 2775 2776 2778 2781 2781 2782 2784 2787 2789 2791 2795 2798 2802 2805 2809 2812 2815 2818 2821 2823 2825 2827 2828 2829 2831 2833 2836 2837 2839 2841 2842
2774 2772 2770 2769 2768 2768 2767 2767 2768 2769 2769 2768 2767 2766 2766 2765 2764 2763 2763 2763 2762 2762 2763 2763 2763 2764 2765 2766 2767 2768 2769 2770 2771 2773 2776 2777 2777 2779 2781 2784 2787 2789 2792 2795 2799 2802 2806 2810 2812 2815 2817 2819 2821 2822 2824 2826 2828 2830 2832 2833 2835 2837 2839
2771 2769 2767 2766 2765 2764 2764 2765 2766 2766 2766 2766 2765 2765 2764 2763 2763 2762 2762 2761 2761 2761 2761 2761 2761 2762 2763 2763 2764 2765 2766 2767 2769 2771 2772 2773 2775 2777 2780 2782 2785 2787 2790 2793 2797 2800 2804 2807 2809 2811 2813 2815 2817 2819 2821 2824 2825 2827 2828 2830 2831 2833 2835
2769 2766 2765 2763 2762 2761 2761 2762 2763 2764 2764 2764 2763 2763 2763 2762 2762 2761 2761 2760 2760 2760 2759 2759 2760 2760 2761 2761 2762 2763 2764 2765 2767 2769 2770 2772 2774 2777 2779 2781 2783 2785 2788 2791 2795 2798 2801 2804 2806 2808 2810 2812 2814 2817 2820 2821 2822 2824 2826 2828 2829 2831 2833
2766 2764 2763 2761 2759 2758 2758 2759 2760 2761 2762 2762 2762 2762 2762 2761 2761 2760 2760 2759 2759 2759 2759 2758 2758 2759 2759 2760 2760 2761 2762 2764 2766 2768 2770 2772 2774 2775 2777 2779 2781 2784 2787 2790 2793 2796 2799 2801 2803 2805 2807 2810 2813 2815 2817 2818 2820 2822 2823 2825 2827 2828 2830
2765 2763 2761 2758 2756 2756 2756 2757 2758 2759 2760 2761 2762 2761 2761 2761 2760 2760 2759 2759 2758 2758 2758 2757 2757 2758 2758 2759 2760 2761 2762 2764 2766 2767 2769 2771 2773 2775 2777 2779 2781 2783 2786 2789 2792 2794 2797 2799 2801 2803 2806 2809 2811 2813 2815 2816 2818 2819 2821 2823 2824 2826 2827
2764 2762 2760 2757 2755 2754 2754 2755 2757 2758 2759 2760 2761 2761 2761 2761 2760 2760 2759 2759 2758 2758 2757 2757 2757 2757 2758 2758 2759 2760 2762 2764 2765 2767 2769 2770 2772 2774 2776 2778 2781 2783 2785 2788 2790 2793 2795 2797 2800 2802 2805 2807 2809 2811 2813 2814 2816 2817 2819 2821 2822 2823 2824
2764 2762 2760 2758 2756 2754 2754 2755 2756 2757 2758 2760 2760 2760 2760 2761 2760 2760 2760 2759 2759 2758 2758 2757 2757 2757 2757 2758 2759 2760 2762 2764 2766 2767 2769 2770 2772 2773 2776 2778 2780 2782 2785 2787 2789 2791 2794 2796 2799 2802 2804 2806 2807 2809 2811 2812 2814 2816 2817 2818 2819 2820 2821
2764 2762 2760 2759 2757 2755 2755 2755 2756 2757 2758 2759 2760 2760 2761 2761 2761 2760 2760 2760 2760 2759 2759 2758 2758 2758 2758 2758 2759 2760 2762 2764 2766 2767 2769 2771 2772 2774 2776 2778 2780 2782 2784 2786 2789 2791 2794 2796 2798 2800 2802 2804 2805 2807 2809 2811 2812 2814 2815 2816 2816 2817 2817
2765 2763 2761 2760 2758 2757 2756 2756 2757 2758 2759 2760 2760 2760 2761 2761 2761 2761 2761 2761 2761 2760 2760 2760 2759 2759 2759 2759 2760 2761 2762 2764 2766 2768 2769 2771 2773 2774 2776 2778 2780 2782 2784 2786 2789 2791 2794 2796 2798 2799 2801 2802 2804 2806 2808 2809 2810 2811 2812 2813 2814 2814 2814
2766 2764 2762 2761 2760 2759 2758 2758 2758 2759 2760 2760 2760 2761 2761 2761 2761 2762 2762 2762 2762 2761 2761 2761 2761 2761 2761 2761 2762 2763 2764 2765 2767 2768 2770 2771 2773 2775 2776 2778 2780 2782 2785 2787 2789 2791 2793 2795 2797 2798 2800 2801 2803 2804 2806 2807 2808 2809 2810 2811 2811 2811 2812
2765 2764 2763 2762 2761 2760 2760 2760 2760 2760 2761 2761 2761 2761 2761 2762 2762 2762 2763 2763 2763 2762 2762 2762 2762 2763 2763 2763 2764 2765 2766 2767 2768 2770 2771 2773 2774 2776 2778 2780 2782 2784 2786 2788 2789 2791 2793 2794 2795 2797 2799 2800 2802 2803 2804 2805 2806 2807 2808 2808 2809 2809 2809
2766 2765 2763 2762 2762 2761 2761 2761 2761 2761 2761 2761 2761 2762 2762 2762 2763 2763 2764 2764 2764 2763 2763 2763 2763 2764 2764 2765 2766 2766 2768 2769 2770 2771 2773 2774 2776 2777 2779 2781 2783 2784 2786 2788 2789 2791 2792 2793 2795 2796 2798 2799 2801 2802 2803 2804 2805 2805 2806 2806 2806 2806 2806